Cincinnati, OH

1:18 PM EDT on May 27, 2017 (GMT -0400)
Cincinnati Municipal-Lunken

Weather History for KLUK - April, 2013

Change the Weather History Date:

Thursday, April 25, 2013

  Actual Average Record
Temperature  
Mean Temperature 44 °F -  
Max Temperature 60 °F 66 °F 87 °F (1960)
Min Temperature 30 °F 42 °F 30 °F (2013)
Degree Days  
Heating Degree Days 20    
Moisture  
Dew Point 33 °F    
Average Humidity 80    
Maximum Humidity 100    
Minimum Humidity 37    
Precipitation  
Precipitation 0.00 in - - ()
Sea Level Pressure  
Sea Level Pressure 30.30 in    
Wind  
Wind Speed 2 mph (WSW)    
Max Wind Speed 16 mph    
Max Gust Speed 24 mph    
Visibility 6 miles    
Events Fog    
Averages and records for this station are not official NWS values.
T = Trace of Precipitation, MM = Missing Value Source: NWS Daily Summary

Daily Weather History Graph

Daily Weather History Graph

Search for Another Location

Airport or City:

Trip Planner

Search our weather history database for the weather conditions in past years. The results will help you decide how hot, cold, wet, or windy it might be!

Date:

Astronomy

Apr. 25, 2013 Rise Set
Actual Time 6:46 AM EDT 8:25 PM EDT
Civil Twilight 6:18 AM EDT 8:53 PM EDT
Nautical Twilight 5:44 AM EDT 9:27 PM EDT
Astronomical Twilight 5:07 AM EDT 10:04 PM EDT
Moon 8:36 PM EDT (4/25) 6:29 AM EDT (4/25)
Length of Visible Light 14h 35m
Length of Day
13h 38m
Full, 100% of the Moon is Illuminated
Apr 25
Full
Apr 25
Full
May 2
Last Quarter
May 9
New
May 18
First Quarter

Hourly Weather History & Observations

Time (EDT) Temp. Windchill Dew Point Humidity Pressure Visibility Wind Dir Wind Speed Gust Speed Precip Events Conditions
12:53 AM 36.0 °F - 35.1 °F 97% 30.28 in 9.0 mi Calm Calm - N/A   Clear
1:11 AM 33.8 °F - 33.8 °F 100% 30.27 in 1.0 mi Calm Calm - N/A   Mist
1:18 AM 33.8 °F - 33.8 °F 100% 30.27 in 0.5 mi Calm Calm - N/A Fog Fog
1:22 AM 35.6 °F - 35.6 °F 100% 30.27 in 1.2 mi Calm Calm - N/A   Clear
1:25 AM 35.6 °F - 35.6 °F 100% 30.27 in 3.0 mi Calm Calm - N/A   Clear
1:53 AM 37.0 °F 34.5 °F 37.0 °F 100% 30.30 in 10.0 mi SW 3.5 mph - N/A   Clear
2:53 AM 37.9 °F - 36.0 °F 93% 30.28 in 10.0 mi Calm Calm - N/A   Clear
3:53 AM 34.0 °F - 33.1 °F 96% 30.28 in 7.0 mi Calm Calm - N/A   Clear
4:19 AM 32.0 °F - 32.0 °F 100% 30.27 in 1.8 mi Calm Calm - N/A   Clear
4:26 AM 32.0 °F - 32.0 °F 100% 30.27 in 0.2 mi Calm Calm - N/A Fog Fog
4:39 AM 32.0 °F - 32.0 °F 100% 30.27 in 0.5 mi Calm Calm - N/A Fog Fog
4:50 AM 30.2 °F - 30.2 °F 100% 30.28 in 0.8 mi Calm Calm - N/A   Mist
4:53 AM 32.0 °F - 30.9 °F 96% 30.29 in 1.0 mi Calm Calm - N/A   Mist
5:02 AM 32.0 °F - 30.2 °F 93% 30.28 in 0.2 mi Calm Calm - N/A Fog Fog
5:23 AM 30.2 °F - 30.2 °F 100% 30.28 in 0.8 mi Calm Calm - N/A   Mist
5:44 AM 32.0 °F - 32.0 °F 100% 30.29 in 0.2 mi Calm Calm - N/A Fog Fog
5:53 AM 32.0 °F - 32.0 °F 100% 30.30 in 0.5 mi Calm Calm - N/A Fog Fog
6:05 AM 30.2 °F - 30.2 °F 100% 30.30 in 0.2 mi Calm Calm - N/A Fog Light Freezing Fog
6:14 AM 30.2 °F - 30.2 °F 100% 30.30 in 0.5 mi Calm Calm - N/A Fog Light Freezing Fog
6:23 AM 30.2 °F - 30.2 °F 100% 30.30 in 0.2 mi Calm Calm - N/A Fog Light Freezing Fog
6:34 AM 30.2 °F - 30.2 °F 100% 30.30 in 0.2 mi Calm Calm - N/A Fog Light Freezing Fog
6:49 AM 30.2 °F - 30.2 °F 100% 30.31 in 3.0 mi Calm Calm - N/A Fog Patches of Fog
6:53 AM 30.9 °F - 30.9 °F 100% 30.32 in 3.0 mi Calm Calm - N/A Fog Patches of Fog
7:53 AM 33.1 °F - 33.1 °F 100% 30.32 in 8.0 mi Calm Calm - N/A Fog Patches of Fog
8:53 AM 41.0 °F 39.0 °F 37.9 °F 89% 30.32 in 10.0 mi SSW 3.5 mph - N/A   Clear
9:53 AM 46.9 °F - 37.0 °F 68% 30.32 in 10.0 mi SSW 9.2 mph - N/A   Clear
10:53 AM 50.0 °F - 34.0 °F 54% 30.31 in 10.0 mi SSW 13.8 mph - N/A   Clear
11:53 AM 53.1 °F - 36.0 °F 52% 30.32 in 10.0 mi SW 11.5 mph 21.9 mph N/A   Clear
12:53 PM 55.0 °F - 37.0 °F 51% 30.31 in 10.0 mi SW 11.5 mph 20.7 mph N/A   Partly Cloudy
1:53 PM 57.0 °F - 37.9 °F 49% 30.29 in 10.0 mi SSW 13.8 mph 24.2 mph N/A   Partly Cloudy
2:53 PM 59.0 °F - 37.9 °F 46% 30.28 in 10.0 mi SW 15.0 mph 24.2 mph N/A   Mostly Cloudy
3:53 PM 57.0 °F - 36.0 °F 45% 30.27 in 10.0 mi SW 15.0 mph - N/A   Mostly Cloudy
4:53 PM 59.0 °F - 36.0 °F 42% 30.27 in 10.0 mi WSW 13.8 mph 23.0 mph N/A   Partly Cloudy
5:53 PM 59.0 °F - 33.1 °F 38% 30.28 in 10.0 mi West 16.1 mph 23.0 mph N/A   Scattered Clouds
6:53 PM 57.9 °F - 32.0 °F 37% 30.29 in 10.0 mi West 12.7 mph 19.6 mph N/A   Partly Cloudy
7:53 PM 55.0 °F - 30.9 °F 40% 30.32 in 10.0 mi NW 10.4 mph - N/A   Clear
8:53 PM 52.0 °F - 28.0 °F 40% 30.34 in 10.0 mi NW 8.1 mph - N/A   Clear
9:53 PM 48.0 °F - 30.0 °F 50% 30.37 in 10.0 mi Variable 3.5 mph - N/A   Clear
10:53 PM 46.9 °F - 30.9 °F 54% 30.40 in 10.0 mi North 4.6 mph - N/A   Clear
11:53 PM 39.9 °F - 34.0 °F 79% 30.41 in 10.0 mi Calm Calm - N/A   Clear